#timestamp,LO_Frequency,Hit 
1503824415.3,286046995.3,N
1503824435.2,286046995.2,N
1503824455.9,286046993.5,N
1503824475.7,286046991.9,P
1503824495.6,286046995.3,N
1503824515.4,286046994.9,N
1503824535.2,286046993.4,P
1503824555.1,286046998.8,N
1503824556.0,286046998.8,N
1503824575.8,286046999.0,N
1503824595.6,286046999.2,N
1503824615.5,286046999.4,N
1503824635.3,286046999.4,N
1503824655.1,286046999.2,N
1503824675.9,286046999.5,N
1503824695.7,286046997.1,N
1503824715.5,286046999.6,N
1503824735.4,286046998.7,N
1503824755.2,286047000.8,N
1503824775.0,286046998.5,N
1503824775.9,286046998.5,N
1503824795.7,286046998.8,N
1503824815.6,286046997.3,N
1503824835.4,286046996.9,N
1503824855.2,286046997.5,N
1503824875.1,286046997.2,N
1503824876.0,286046997.2,N
1503824895.8,286046996.8,N
1503824915.6,286046994.9,P
1503824935.5,286046997.4,N
1503824955.3,286046999.4,N
1503824975.1,286046997.7,N
1503824995.9,286046997.6,N
1503825015.7,286046997.6,N
1503825035.5,286046998.0,N
1503825055.4,286046997.4,N
1503825075.2,286046996.7,P
1503825095.0,286046999.7,N
1503825095.9,286046999.7,N
1503825115.8,286046998.3,N
1503825135.6,286046999.9,N
1503825155.5,286047000.2,N
1503825175.3,286046998.6,N
1503825195.1,286046998.8,N
1503825215.9,286046998.3,N
1503825235.7,286046996.7,P
1503825255.5,286046999.3,N
1503825275.4,286046999.9,N
1503825295.2,286046998.4,N
1503825315.0,286046998.7,N
1503825315.9,286046998.7,N
1503825335.8,286046998.9,N
1503825355.6,286046997.2,P
1503825375.4,286046999.4,N
1503825395.3,286046998.2,N
1503825415.1,286047002.8,P
1503825435.8,286047003.6,N
1503825455.7,286047002.0,N
1503825475.5,286047002.3,N
1503825495.3,286047004.2,N
1503825515.2,286047001.8,N
1503825535.9,286047004.4,N
1503825555.6,286047000.5,N
1503825575.4,286047002.4,N
1503825595.3,286047000.9,N
1503825615.1,286047002.3,N
1503825616.0,286047002.3,N
1503825635.8,286046999.7,N
1503825655.7,286047000.0,N
1503825675.5,286047000.1,N
1503825695.3,286046998.9,N
1503825715.2,286046998.7,N
1503825735.9,286046997.0,N
1503825755.7,286046999.3,N
1503825775.5,286046996.9,N
1503825795.4,286046997.3,N
1503825815.2,286046999.4,N
1503825835.0,286046995.6,N
1503825835.9,286046995.6,N
1503825855.8,286046996.4,N
1503825875.6,286046995.2,N
1503825895.4,286046995.9,N
1503825915.3,286046993.8,N
1503825935.1,286046996.3,N
1503825936.0,286046996.3,N
1503825955.8,286046996.3,N
1503825975.7,286046994.8,N
1503825995.5,286046994.3,N
1503826015.3,286046993.1,N
1503826035.2,286046994.7,N
1503826055.9,286046992.9,N
1503826075.7,286046990.6,P
1503826095.6,286046992.2,N
1503826115.4,286046993.2,N
1503826135.2,286046992.9,N
1503826155.1,286046990.5,P
1503826156.0,286046990.5,P
1503826175.8,286046998.3,N
1503826195.6,286047000.2,N
1503826215.5,286047001.9,N
1503826235.3,286047000.0,N
1503826255.1,286047001.0,N
1503826275.9,286046997.2,N
1503826295.7,286046996.7,N
1503826315.5,286046997.8,N
1503826335.3,286046999.1,N
1503826355.2,286046997.4,N
1503826375.9,286046998.0,N
1503826395.7,286046995.0,N
1503826415.6,286046995.1,N
1503826435.4,286046994.5,N
1503826455.2,286046993.9,N
1503826475.1,286046994.8,N
1503826476.0,286046994.8,N
1503826495.8,286046993.6,N
1503826515.6,286046996.4,N
1503826535.5,286046996.1,N
1503826555.3,286046995.7,N
1503826575.1,286046995.9,N
1503826595.8,286046993.5,N
1503826615.7,286046994.3,N
1503826635.5,286046993.6,N
1503826655.3,286046994.0,N
1503826675.2,286046995.9,N
1503826695.0,286046994.6,N
1503826695.9,286046994.6,N
1503826715.8,286046991.8,P
1503826735.6,286046995.4,N
1503826755.4,286046995.0,N
1503826775.2,286046996.3,N
1503826795.1,286046996.3,N
1503826796.0,286046996.3,N
1503826815.8,286046993.9,P
1503826835.7,286046998.6,N
1503826855.5,286047000.5,N
1503826875.3,286047000.3,N
1503826895.1,286047000.9,N
1503826915.9,286046998.7,N
1503826935.7,286046998.8,N
1503826955.5,286046999.2,N
1503826975.4,286046996.9,N
1503826995.2,286046997.7,N
1503827015.0,286046997.9,N
1503827015.9,286046997.9,N
1503827035.8,286046995.2,N
1503827055.6,286046996.1,N
1503827075.4,286046996.3,N
1503827095.3,286046995.8,N
1503827115.1,286046996.0,N
1503827116.0,286046996.0,N
1503827135.8,286046996.2,N
1503827155.7,286046996.0,N
1503827175.5,286046995.8,N
1503827195.3,286046994.9,N
1503827215.2,286046993.5,P
1503827235.9,286046996.7,N
1503827255.7,286046996.9,N
1503827275.6,286046999.4,N
1503827295.4,286046997.0,N
1503827315.2,286046996.6,N
1503827335.0,286046996.5,N
1503827335.9,286046996.5,N
1503827355.8,286046997.8,N
1503827375.6,286046995.9,N
1503827395.4,286046996.2,N
1503827415.3,286046995.8,P
1503827435.1,286046999.1,N
1503827455.9,286046999.4,N
1503827475.7,286046996.7,N
1503827495.5,286046997.1,N
1503827515.3,286046997.2,N
1503827535.2,286046995.3,P
1503827555.0,286046999.3,N
1503827555.9,286046999.3,N
1503827575.8,286046999.0,N
1503827595.6,286046997.3,N
1503827615.4,286046997.1,N
1503827635.2,286046996.7,N
1503827655.1,286046997.6,N
1503827656.0,286046997.6,N
1503827675.8,286046995.5,P
1503827695.7,286046997.1,N
1503827715.5,286046997.2,P
1503827735.3,286046997.1,P
1503827755.2,286046999.8,N
1503827775.9,286047000.5,N
1503827795.7,286046998.2,N
1503827815.5,286047000.2,N
1503827835.4,286047002.8,N
1503827855.2,286047001.9,N
1503827875.0,286047002.2,N
1503827875.9,286047002.2,N
1503827895.8,286047002.7,N
1503827915.6,286046998.7,N
1503827935.4,286046998.5,N
1503827955.3,286046998.4,N
1503827975.1,286046998.7,N
1503827976.0,286046998.7,N
1503827995.8,286046998.6,N
